Regional Weather Roundup
Issued by NWS Kansas City/Pleasant Hill, MO

Home | Current Version | Previous Version | Text Only | Print | Product List | Glossary On
Versions: 1 2 3 4 5 6 7 8 9 10 11 12 13 14 15 16 17 18 19 20 21 22 23 24 25 26 27 28 29 30 31 32 33 34 35 36 37 38 39 40 41 42 43 44 45 46 47 48 49 50
000
ASUS43 KEAX 271211
RWREAX

WEATHER ROUNDUP FOR EASTERN KANSAS AND NORTHWEST MISSOURI
NATIONAL WEATHER SERVICE KANSAS CITY/PLEASANT HILL MO
700 AM CDT WED AUG 27 2014

KSZ040-057-103>105-MOZ028-029-037-043-271300-
...KANSAS CITY METROPOLITAN AREA...

CITY           SKY/WX    TMP DP  RH WIND       PRES   REMARKS
K.C. INTL      CLOUDY    73  72  96 N16       30.11R
6HR MIN TEMP:  72; 6HR MAX TEMP:  78;

K.C. DOWNTOWN  PTCLDY    76  71  85 S3        30.07R
6HR MIN TEMP:  76; 6HR MAX TEMP:  79;

LEES SUMMIT    CLEAR     73  69  87 S5        30.09R
6HR MIN TEMP:  72; 6HR MAX TEMP:  77;

OLATHE - IXD   PTCLDY    72  67  84 E5        30.10R
6HR MIN TEMP:  70; 6HR MAX TEMP:  78;

OLATHE - OJC   CLEAR     71  68  90 S3        30.09R
6HR MIN TEMP:  71; 6HR MAX TEMP:  78;

LAWRENCE       PTCLDY    75  69  81 E5        30.08R

$$

MOZ001>008-011>017-020>025-030>033-038>040-044>046-053-054-271300-
...NORTHERN AND CENTRAL MISSOURI...

CITY           SKY/WX    TMP DP  RH WIND       PRES   REMARKS
ST. JOSEPH     CLOUDY    69  66  90 N9        30.14R
6HR MIN TEMP:  69; 6HR MAX TEMP:  76; 6HR PCP: TRACE;

MOSBY          MOSUNNY   72  72 100 N6        30.10R
WHITEMAN AFB   CLEAR     69  54  58 W2        30.08R
6HR MIN TEMP:  69; 6HR MAX TEMP:  74;

CLINTON        CLEAR     70  68  94 CALM      30.08R FOG
SEDALIA        CLEAR     71  68  90 CALM      30.08R FOG
6HR MIN TEMP:  70; 6HR MAX TEMP:  75;

WARSAW         NOT AVBL
MARSHALL       CLEAR     75  75 100 CALM      30.09R FOG
CHILLICOTHE      N/A     71  68  90 N3        30.10R
6HR MIN TEMP:  70; 6HR MAX TEMP:  75; 6HR PCP:  0.03;

MOBERLY        CLEAR     70  66  88 NE5       30.09R FOG
KIRKSVILLE     PTCLDY    69  67  93 NE6       30.11R
6HR MIN TEMP:  69; 6HR MAX TEMP:  71;


$$

MOZ041-047>049-056>058-063>065-088>090-097-271300-
...EASTERN AND SOUTHERN MISSOURI...

CITY           SKY/WX    TMP DP  RH WIND       PRES   REMARKS
ST. LOUIS INTL PTCLDY    76  70  82 CALM      30.08R
6HR MIN TEMP:  75; 6HR MAX TEMP:  78;

SPIRIT OF STL  CLEAR     72  70  93 CALM      30.06R
COLUMBIA       FOG       71  71 100 E5        30.07S VSB 1/4
JEFFERSON CITY CLEAR     70  68  93 CALM      30.07R
MEXICO         CLEAR    N/A N/A N/A CALM      30.08R HAZE
HANNIBAL       CLEAR     72  70  94 NE5       30.10R
ROLLA          CLEAR     70  67  90 S6        30.08R
LEBANON        CLEAR     73  68  83 S5        30.11R
OSAGE BEACH    CLEAR     70  64  83 CALM      30.08R
SPRINGFIELD    CLEAR     72  67  84 S6        30.10R
BRANSON        PTCLDY    70  68  94 CALM      30.12S
NEVADA         CLEAR     70  68  94 S3        30.10R
JOPLIN         CLEAR     73  67  81 S7        30.09R
WEST PLAINS    CLEAR     70  66  87 CALM      30.12S

$$

IAZ060-094-KSZ022-034>040-054-083-096-NEZ052-066-093-271300-
...KANSAS...SOUTHEAST NEBRASKA AND IOWA...

CITY           SKY/WX    TMP DP  RH WIND       PRES   REMARKS
TOPEKA         CLOUDY    76  72  87 E6        30.07R
6HR MIN TEMP:  76; 6HR MAX TEMP:  79;

MANHATTAN      LGT RAIN  74  70  87 W6        30.06R
EMPORIA        CLEAR     70  67  90 S5        30.08R
CHANUTE        CLEAR     71  66  84 CALM      30.08R
WICHITA        MOCLDY    71  66  84 CALM      30.09R
OMAHA          MOCLDY    69  64  84 SE7       30.10R
LINCOLN        CLOUDY    70  67  90 CALM      30.09S
FALLS CITY     CLOUDY    70  67  90 SE10      30.07F
LAMONI         TSTM      68  67  96 SW6       30.15R FOG
DES MOINES     CLOUDY    68  62  81 NE7       30.14R

$$




USA.gov is the U.S. government's official web portal to all federal, state and local government web resources and services.